Location: *
(43.2048°N, 0.1612°E)
Time: 20:42:51
(UTC+00:00)

Envisat - Pass Details

Date: 30 September 2023
Orbit: 762 x 764 km, 98.3° (Epoch: 06 December)

Event Time Altitude Azimuth Distance (km) Brightness Sun altitude
Rises 03:00:02 0° 21° (NNE) 3,241 6.9 -31.5°
Reaches altitude 10° 03:02:33 10° 31° (NNE) 2,310 6.2 -31.1°
Maximum altitude 03:07:12 35° 97° (E) 1,218 4.4 -30.4°
Enters shadow 03:08:53 28° 135° (SE) 1,412 4.4 -30.1°
